Weather History for Soldotna, AK

Change the Weather History Date:

Wednesday, November 7, 2012

  Actual Average Record
Temperature  
Mean Temperature 10 °F -  
Max Temperature 21 °F 32 °F 46 °F (1983)
Min Temperature -2 °F 17 °F -16 °F (1956)
Degree Days  
Heating Degree Days 56    
Moisture  
Dew Point 2 °F    
Average Humidity 84    
Maximum Humidity 100    
Minimum Humidity 58    
Precipitation  
Precipitation 0.00 in - - ()
Sea Level Pressure  
Sea Level Pressure 30.29 in    
Wind  
Wind Speed 4 mph (East)    
Max Wind Speed 7 mph    
Max Gust Speed -    
Visibility 10 miles    
Events      
Averages and records for this station are not official NWS values.
T = Trace of Precipitation, MM = Missing Value Source: NWS Daily Summary

Daily Weather History Graph

Daily Weather History Graph

Search for Another Location

Airport:

Trip Planner

Search our weather history database for the weather conditions in past years. The results will help you decide how hot, cold, wet, or windy it might be!

Date:

Astronomy

Nov. 07, 2012 Rise Set
Actual Time 8:46 AM AKST 4:48 PM AKST
Civil Twilight 7:58 AM AKST 5:36 PM AKST
Nautical Twilight 7:07 AM AKST 6:27 PM AKST
Astronomical Twilight 6:17 AM AKST 7:16 PM AKST
Moon 12:05 AM AKST (11/7) 2:37 PM AKST (11/7)
Length of Visible Light 9h 38m
Length of Day
8h 02m
Last Quarter, 41% of the Moon is Illuminated
Nov 7
Last Quarter
Nov 13
New
Nov 20
First Quarter
Nov 28
Full
Dec 6
Last Quarter

Hourly Weather History & Observations

Time (AKST) Temp. Windchill Dew Point Humidity Pressure Visibility Wind Dir Wind Speed Gust Speed Precip Events Conditions
12:16 AM -0.4 °F -10.4 °F -7.6 °F 72% 30.17 in 10.0 mi East 4.6 mph - N/A   Clear
12:36 AM -0.4 °F -10.4 °F -5.8 °F 78% 30.17 in 10.0 mi East 4.6 mph - N/A   Clear
12:56 AM 1.4 °F -6.2 °F -0.4 °F 92% 30.18 in 10.0 mi East 3.5 mph - N/A   Clear
1:16 AM -0.4 °F -10.4 °F -5.8 °F 78% 30.19 in 10.0 mi ENE 4.6 mph - N/A   Clear
1:36 AM -0.4 °F -8.3 °F -2.2 °F 92% 30.19 in 10.0 mi ENE 3.5 mph - N/A   Clear
1:56 AM -0.4 °F -10.4 °F -2.2 °F 92% 30.19 in 10.0 mi ENE 4.6 mph - N/A   Clear
2:16 AM -0.4 °F -10.4 °F -2.2 °F 92% 30.19 in 10.0 mi ENE 4.6 mph - N/A   Clear
2:36 AM 1.4 °F -9.9 °F -0.4 °F 92% 30.19 in 10.0 mi East 5.8 mph - N/A   Clear
2:56 AM -0.4 °F -12.0 °F -2.2 °F 92% 30.20 in 10.0 mi East 5.8 mph - N/A   Clear
3:36 AM -0.4 °F -10.4 °F -2.2 °F 92% 30.21 in 10.0 mi East 4.6 mph - N/A   Clear
3:56 AM -0.4 °F -12.0 °F -5.8 °F 78% 30.21 in 10.0 mi East 5.8 mph - N/A   Clear
4:16 AM -2.2 °F -12.5 °F -7.6 °F 78% 30.22 in 10.0 mi ENE 4.6 mph - N/A   Clear
4:36 AM -0.4 °F -10.4 °F -0.4 °F 100% 30.22 in 10.0 mi East 4.6 mph - N/A   Clear
4:56 AM -0.4 °F -13.4 °F -7.6 °F 72% 30.22 in 10.0 mi ENE 6.9 mph - N/A   Clear
5:16 AM -2.2 °F -10.4 °F -5.8 °F 85% 30.23 in 10.0 mi East 3.5 mph - N/A   Clear
5:36 AM -0.4 °F -10.4 °F -0.4 °F 100% 30.23 in 10.0 mi East 4.6 mph - N/A   Clear
5:56 AM -0.4 °F -10.4 °F -5.8 °F 78% 30.24 in 10.0 mi ENE 4.6 mph - N/A   Clear
6:16 AM -0.4 °F -10.4 °F -5.8 °F 78% 30.24 in 10.0 mi ENE 4.6 mph - N/A   Clear
6:36 AM -0.4 °F -12.0 °F -4.0 °F 85% 30.25 in 10.0 mi East 5.8 mph - N/A   Clear
6:56 AM -2.2 °F -12.5 °F -5.8 °F 85% 30.25 in 10.0 mi ENE 4.6 mph - N/A   Clear
7:16 AM -2.2 °F -12.5 °F -4.0 °F 92% 30.26 in 10.0 mi ENE 4.6 mph - N/A   Clear
7:36 AM -2.2 °F -14.2 °F -5.8 °F 85% 30.27 in 10.0 mi East 5.8 mph - N/A   Clear
7:56 AM -2.2 °F -14.2 °F -5.8 °F 85% 30.28 in 10.0 mi East 5.8 mph - N/A   Clear
8:16 AM -2.2 °F -15.6 °F -9.4 °F 71% 30.28 in 10.0 mi East 6.9 mph - N/A   Clear
8:36 AM -2.2 °F -14.2 °F -2.2 °F 100% 30.28 in 10.0 mi East 5.8 mph - N/A   Clear
8:56 AM -2.2 °F -14.2 °F -5.8 °F 85% 30.29 in 10.0 mi ENE 5.8 mph - N/A   Clear
9:16 AM -2.2 °F -14.2 °F -5.8 °F 85% 30.30 in 10.0 mi East 5.8 mph - N/A   Clear
9:36 AM -2.2 °F -14.2 °F -4.0 °F 92% 30.30 in 10.0 mi East 5.8 mph - N/A   Clear
9:56 AM -0.4 °F -12.0 °F -5.8 °F 78% 30.30 in 10.0 mi East 5.8 mph - N/A   Clear
10:16 AM -0.4 °F -12.0 °F -0.4 °F 100% 30.30 in 9.0 mi East 5.8 mph - N/A   Clear
10:36 AM 1.4 °F -11.3 °F -0.4 °F 92% 30.31 in 10.0 mi East 6.9 mph - N/A   Clear
10:56 AM 3.2 °F -6.2 °F 1.4 °F 92% 30.31 in 10.0 mi East 4.6 mph - N/A   Clear
11:16 AM 3.2 °F -6.2 °F 1.4 °F 92% 30.32 in 10.0 mi ENE 4.6 mph - N/A   Clear
11:36 AM 5.0 °F -4.1 °F 1.4 °F 85% 30.33 in 10.0 mi East 4.6 mph - N/A   Clear
11:56 AM 6.8 °F -2.0 °F 5.0 °F 92% 30.33 in 10.0 mi East 4.6 mph - N/A   Clear
12:16 PM 8.6 °F 2.0 °F 6.8 °F 92% 30.33 in 10.0 mi ENE 3.5 mph - N/A   Clear
12:36 PM 10.4 °F 4.0 °F 8.6 °F 92% 30.33 in 10.0 mi East 3.5 mph - N/A   Clear
12:56 PM 12.2 °F 6.1 °F 8.6 °F 85% 30.33 in 10.0 mi East 3.5 mph - N/A   Clear
1:16 PM 15.8 °F 10.2 °F 10.4 °F 79% 30.33 in 10.0 mi East 3.5 mph - N/A   Clear
1:36 PM 19.4 °F 14.3 °F 14.0 °F 80% 30.33 in 10.0 mi East 3.5 mph - N/A   Clear
1:56 PM 21.2 °F 16.4 °F 12.2 °F 68% 30.33 in 10.0 mi East 3.5 mph - N/A   Clear
2:16 PM 21.2 °F 14.9 °F 10.4 °F 63% 30.32 in 10.0 mi East 4.6 mph - N/A   Clear
2:36 PM 21.2 °F 14.9 °F 10.4 °F 63% 30.32 in 10.0 mi East 4.6 mph - N/A   Clear
2:56 PM 21.2 °F - 10.4 °F 63% 30.32 in 10.0 mi Calm Calm - N/A   Clear
3:16 PM 21.2 °F - 10.4 °F 63% 30.32 in 10.0 mi Calm Calm - N/A   Clear
3:36 PM 21.2 °F 14.9 °F 8.6 °F 58% 30.32 in 10.0 mi East 4.6 mph - N/A   Clear
3:56 PM 17.6 °F - 6.8 °F 63% 30.33 in 10.0 mi Calm Calm - N/A   Clear
4:16 PM 19.4 °F 14.3 °F 10.4 °F 68% 30.32 in - East 3.5 mph - N/A   Clear
4:36 PM 17.6 °F - 12.2 °F 79% 30.33 in 10.0 mi Calm Calm - N/A   Clear
4:56 PM 12.2 °F - 8.6 °F 85% 30.33 in 10.0 mi Calm Calm - N/A   Clear
5:16 PM 10.4 °F - 1.4 °F 67% 30.33 in 10.0 mi Calm Calm - N/A   Clear
5:36 PM 10.4 °F - 8.6 °F 92% 30.33 in - Calm Calm - N/A   Unknown
5:56 PM 10.4 °F 4.0 °F 8.6 °F 92% 30.33 in 10.0 mi East 3.5 mph - N/A   Clear
6:16 PM 8.6 °F 2.0 °F 8.6 °F 100% 30.34 in 10.0 mi ENE 3.5 mph - N/A   Clear
6:36 PM 6.8 °F -0.1 °F 1.4 °F 79% 30.34 in 10.0 mi ENE 3.5 mph - N/A   Clear
6:56 PM 10.4 °F 4.0 °F 10.4 °F 100% 30.34 in 10.0 mi ENE 3.5 mph - N/A   Clear
7:16 PM 6.8 °F -2.0 °F -0.4 °F 72% 30.34 in 10.0 mi ENE 4.6 mph - N/A   Clear
7:36 PM 8.6 °F 0.1 °F 8.6 °F 100% 30.34 in 10.0 mi ENE 4.6 mph - N/A   Clear
7:56 PM 10.4 °F 2.2 °F 8.6 °F 92% 30.34 in 10.0 mi East 4.6 mph - N/A   Clear
8:16 PM 10.4 °F 4.0 °F 6.8 °F 85% 30.35 in 10.0 mi ENE 3.5 mph - N/A   Clear
8:36 PM 8.6 °F 0.1 °F 3.2 °F 79% 30.35 in 10.0 mi East 4.6 mph - N/A   Clear
8:56 PM 8.6 °F 0.1 °F 5.0 °F 85% 30.35 in 10.0 mi ENE 4.6 mph - N/A   Clear
9:16 PM 6.8 °F -2.0 °F 3.2 °F 85% 30.35 in 10.0 mi East 4.6 mph - N/A   Clear
9:36 PM 6.8 °F -2.0 °F 3.2 °F 85% 30.35 in 10.0 mi East 4.6 mph - N/A   Clear
9:56 PM 6.8 °F -2.0 °F 3.2 °F 85% 30.35 in 10.0 mi East 4.6 mph - N/A   Clear
10:16 PM 6.8 °F -2.0 °F 3.2 °F 85% 30.35 in 10.0 mi East 4.6 mph - N/A   Clear
10:36 PM 6.8 °F -2.0 °F 3.2 °F 85% 30.36 in 10.0 mi East 4.6 mph - N/A   Clear
10:56 PM 6.8 °F -3.5 °F 1.4 °F 79% 30.36 in 10.0 mi East 5.8 mph - N/A   Clear
11:16 PM 5.0 °F -2.1 °F 1.4 °F 85% 30.36 in 10.0 mi East 3.5 mph - N/A   Clear
11:36 PM 5.0 °F -4.1 °F 1.4 °F 85% 30.37 in 10.0 mi East 4.6 mph - N/A   Clear
11:56 PM 5.0 °F -4.1 °F 1.4 °F 85% 30.37 in 10.0 mi ESE 4.6 mph - N/A   Clear